Regional Weather Roundup
Issued by NWS

Home | Current Version | Previous Version | Graphics & Text | Print | Product List | Glossary On
Versions: 1 2 3 4 5 6 7 8 9 10 11 12 13 14 15 16 17 18 19 20 21 22 23 24 25 26 27 28 29 30 31 32 33 34 35 36 37 38 39 40 41 42 43 44 45 46 47 48 49 50
000
ASUS43 KOAX 230602
RWRNE

WEATHER ROUNDUP FOR NEBRASKA
NATIONAL WEATHER SERVICE OMAHA NE
100 AM CDT MON OCT 23 2017

NOTES: SATELLITE DATA IS BEING USED TO AUGMENT CLOUD COVER ABOVE
       12000 FEET.
       "FAIR" INDICATES FEW OR NO CLOUDS BELOW 12,000 FEET WITH NO
       SIGNIFICANT WEATHER AND/OR OBSTRUCTIONS TO VISIBILITY.


NEZ001>004-019>022-054>056-230700-
NEBRASKA PANHANDLE

CITY           SKY/WX    TMP DP  RH WIND       PRES   REMARKS
SCOTTSBLUFF    CLEAR     60  31  33 W18       30.05R
6HR MIN TEMP:  58; 6HR MAX TEMP:  64;

ALLIANCE       CLEAR     48  31  51 W13       30.01R
6HR MIN TEMP:  48; 6HR MAX TEMP:  59;

CHADRON        PTCLDY    55  30  38 W14       30.02R
6HR MIN TEMP:  49; 6HR MAX TEMP:  67;

GORDON         FAIR      59  33  37 N25G39    30.02R
6HR MIN TEMP:  51; 6HR MAX TEMP:  63;

KIMBALL        CLOUDY    51  29  42 NW14      30.12S
SIDNEY         CLOUDY    49  29  46 W10       30.08S
6HR MIN TEMP:  44; 6HR MAX TEMP:  62;

$$

NEZ057>060-069>072-079>082-230700-
SOUTHWEST NEBRASKA

CITY           SKY/WX    TMP DP  RH WIND       PRES   REMARKS
NORTH PLATTE   CLEAR     41  36  82 N3        29.98S
6HR MIN TEMP:  40; 6HR MAX TEMP:  61;

IMPERIAL       CLEAR     46  31  55 W8        30.03R
6HR MIN TEMP:  40; 6HR MAX TEMP:  62;

LEXINGTON      CLEAR     47  31  55 W3        29.96S
MCCOOK         CLEAR     47  29  49 W9        30.00R
6HR MIN TEMP:  47; 6HR MAX TEMP:  63;

OGALLALA       CLEAR     43  33  68 CALM      30.01S
$$

NEZ005>010-023>029-035>040-094-230700-
NORTH CENTRAL NEBRASKA

CITY           SKY/WX    TMP DP  RH WIND       PRES   REMARKS
VALENTINE      CLEAR     55  34  45 NW13      29.93R
6HR MIN TEMP:  49; 6HR MAX TEMP:  59;

AINSWORTH      CLEAR     56  37  48 W13G22    29.91R
BROKEN BOW     CLEAR     49  35  58 W8        29.93R
6HR MIN TEMP:  41; 6HR MAX TEMP:  57;

O`NEILL        PTCLDY    49  37  63 SW8       29.86F
ORD            PTCLDY    47  33  58 CALM      29.90R
6HR MIN TEMP:  46; 6HR MAX TEMP:  57;

THEDFORD       MOCLDY    53  36  52 W6        29.95S
$$

NEZ041-046>049-061>064-073>077-083>087-230700-
SOUTH CENTRAL NEBRASKA

CITY           SKY/WX    TMP DP  RH WIND       PRES   REMARKS
GRAND ISLAND   PTCLDY    53  30  41 SW12      29.92F
6HR MIN TEMP:  51; 6HR MAX TEMP:  58;

AURORA         PTCLDY    49  31  48 SW8       29.92F
HASTINGS       CLEAR     52  28  39 SW9       29.95S
6HR MIN TEMP:  51; 6HR MAX TEMP:  61;

HEBRON         CLEAR     54  30  40 S12       29.95F
HOLDREGE       CLOUDY    53  29  40 W10       29.96F
KEARNEY        PTCLDY    53  28  38 SW12      29.94F
YORK           CLEAR     50  32  50 S8        29.93F
$$

NEZ011>018-030>034-042>045-230700-
NORTHEAST NEBRASKA

CITY           SKY/WX    TMP DP  RH WIND       PRES   REMARKS
NORFOLK        PTCLDY    51  32  48 SW7       29.87F
6HR MIN TEMP:  51; 6HR MAX TEMP:  58;

ALBION         PTCLDY    54  31  41 CALM      29.90S
BLAIR          CLEAR     51  34  51 S8        29.92F
COLUMBUS       CLEAR     54  31  41 SW10      29.91F
FREMONT        CLEAR     54  32  43 S10       29.91F
TEKAMAH        CLEAR     46  34  62 SE7       29.91F
6HR MIN TEMP:  43; 6HR MAX TEMP:  56;

WAYNE          MOCLDY    47  32  55 S7        29.88S
$$

NEZ050>053-065>068-078-088>093-230700-
SOUTHEAST NEBRASKA

CITY           SKY/WX    TMP DP  RH WIND       PRES   REMARKS
LINCOLN        CLEAR     48  33  56 S8        29.94F
6HR MIN TEMP:  46; 6HR MAX TEMP:  56;

OMAHA EPPLEY   PTCLDY    48  36  63 SE10      29.94F
6HR MIN TEMP:  48; 6HR MAX TEMP:  59;

BEATRICE       CLOUDY    52  32  46 S9        29.96F
FALLS CITY     CLEAR     52  34  50 S9        29.98F
6HR MIN TEMP:  50; 6HR MAX TEMP:  60;

NEBRASKA CITY  CLEAR     49  36  60 S9        29.96F
PLATTSMOUTH    CLEAR     49  34  56 S8        29.94F
$$

NEZ044-045-051>053-067-230700-
OMAHA AREA

CITY           SKY/WX    TMP DP  RH WIND       PRES   REMARKS
OMAHA EPPLEY   PTCLDY    48  36  63 SE10      29.94F
6HR MIN TEMP:  48; 6HR MAX TEMP:  59;

BLAIR          CLEAR     51  34  51 S8        29.92F
FREMONT        CLEAR     54  32  43 S10       29.91F
MILLARD        CLEAR     50  36  58 CALM      29.94F
OFFUTT AFB     CLEAR     47  35  62 SE5       29.94F
PLATTSMOUTH    CLEAR     49  34  56 S8        29.94F
WAHOO          FAIR      47  34  60 S6        29.92F
$$



USA.gov is the U.S. government's official web portal to all federal, state and local government web resources and services.